• In Romania
  • List of Countries
  • For 7 days
  • Water Temperature
  • Satellite Maps
  • Weather Map
  • Weather Widgets
  • user-avatar
    Login

    Hourly Weather Canillo

    Today, 17 January, Tuesday

    Time Temperature Precipitation Wind Pressure Humidity
    00:00 -12°C° 0.1 mm 4 mps 614 mmHg 90%
    01:00 -12°C° 0 mm 4 mps 613 mmHg 89%
    02:00 -14°C° 0 mm 4 mps 613 mmHg 88%
    03:00 -15°C° 0 mm 4 mps 613 mmHg 87%
    04:00 -16°C° 0 mm 4 mps 613 mmHg 86%
    05:00 -16°C° 0 mm 4 mps 613 mmHg 85%
    06:00 -17°C° 0 mm 4 mps 613 mmHg 84%
    07:00 -18°C° 0 mm 5 mps 613 mmHg 81%
    08:00 -17°C° 0 mm 5 mps 614 mmHg 78%
    09:00 -17°C° 0 mm 5 mps 614 mmHg 76%
    10:00 -15°C° 0 mm 5 mps 614 mmHg 74%
    11:00 -14°C° 0 mm 5 mps 615 mmHg 72%
    12:00 -15°C° 0 mm 6 mps 615 mmHg 71%
    13:00 -14°C° 0.1 mm 5 mps 615 mmHg 71%
    14:00 -14°C° 0.1 mm 5 mps 615 mmHg 72%
    15:00 -14°C° 0.1 mm 5 mps 615 mmHg 73%
    16:00 -14°C° 0 mm 4 mps 615 mmHg 75%
    17:00 -15°C° 0 mm 4 mps 614 mmHg 77%
    18:00 -16°C° 0 mm 4 mps 614 mmHg 80%
    19:00 -16°C° 0 mm 4 mps 614 mmHg 80%
    20:00 -17°C° 0 mm 4 mps 615 mmHg 80%
    21:00 -16°C° 0 mm 3 mps 615 mmHg 80%
    22:00 -16°C° 0 mm 3 mps 615 mmHg 81%
    23:00 -16°C° 0 mm 3 mps 615 mmHg 81%

    Tomorrow, 18 January, Wednesday

    Time Temperature Precipitation Wind Pressure Humidity
    00:00 -17°C° 0 mm 3 mps 615 mmHg 82%
    01:00 -17°C° 0 mm 3 mps 615 mmHg 82%
    02:00 -17°C° 0 mm 3 mps 614 mmHg 82%
    03:00 -17°C° 0 mm 2 mps 614 mmHg 82%
    04:00 -17°C° 0 mm 2 mps 614 mmHg 81%
    05:00 -17°C° 0 mm 2 mps 614 mmHg 80%
    06:00 -17°C° 0 mm 2 mps 614 mmHg 80%
    07:00 -16°C° 0 mm 2 mps 615 mmHg 77%
    08:00 -14°C° 0 mm 2 mps 616 mmHg 73%
    09:00 -13°C° 0 mm 2 mps 617 mmHg 70%
    10:00 -9°C° 0 mm 1 mps 617 mmHg 67%
    11:00 -7°C° 0 mm 1 mps 618 mmHg 64%
    12:00 -4°C° 0 mm 1 mps 619 mmHg 61%
    13:00 -4°C° 0 mm 1 mps 619 mmHg 62%
    14:00 -6°C° 0 mm 1 mps 618 mmHg 64%
    15:00 -6°C° 0 mm 1 mps 618 mmHg 66%
    16:00 -9°C° 0 mm 1 mps 616 mmHg 73%
    17:00 -13°C° 0 mm 1 mps 615 mmHg 80%
    18:00 -17°C° 0 mm 0 mps 613 mmHg 88%
    19:00 -17°C° 0 mm 0 mps 613 mmHg 88%
    20:00 -17°C° 0 mm 0 mps 613 mmHg 87%
    21:00 -17°C° 0 mm 0 mps 613 mmHg 87%
    22:00 -17°C° 0 mm 0 mps 613 mmHg 86%
    23:00 -17°C° 0 mm 0 mps 613 mmHg 85%

    Day after tomorrow, 19 January, Thursday

    Time Temperature Precipitation Wind Pressure Humidity
    00:00 -17°C° 0 mm 0 mps 613 mmHg 84%
    01:00 -17°C° 0 mm 0 mps 613 mmHg 83%
    02:00 -17°C° 0 mm 0 mps 613 mmHg 83%
    03:00 -17°C° 0 mm 0 mps 613 mmHg 82%
    04:00 -17°C° 0 mm 0 mps 613 mmHg 81%
    05:00 -17°C° 0 mm 0 mps 613 mmHg 81%
    06:00 -17°C° 0 mm 0 mps 613 mmHg 80%
    07:00 -14°C° 0 mm 0 mps 615 mmHg 75%
    08:00 -11°C° 0 mm 1 mps 617 mmHg 69%
    09:00 -8°C° 0 mm 1 mps 619 mmHg 63%
    10:00 -6°C° 0 mm 1 mps 619 mmHg 62%
    11:00 -4°C° 0 mm 1 mps 619 mmHg 62%
    12:00 -2°C° 0 mm 1 mps 620 mmHg 61%
    13:00 -3°C° 0 mm 1 mps 620 mmHg 63%
    14:00 -3°C° 0 mm 1 mps 619 mmHg 65%
    15:00 -3°C° 0 mm 1 mps 619 mmHg 68%
    16:00 -7°C° 0 mm 1 mps 618 mmHg 74%
    17:00 -10°C° 0 mm 1 mps 616 mmHg 81%
    18:00 -13°C° 0 mm 1 mps 615 mmHg 87%
    19:00 -13°C° 0 mm 1 mps 615 mmHg 88%
    20:00 -13°C° 0 mm 1 mps 615 mmHg 88%
    21:00 -13°C° 0 mm 1 mps 615 mmHg 89%
    22:00 -13°C° 0 mm 1 mps 615 mmHg 89%
    23:00 -13°C° 0 mm 1 mps 615 mmHg 89%

    20 January, Friday

    Time Temperature Precipitation Wind Pressure Humidity
    00:00 -13°C° 0 mm 1 mps 615 mmHg 90%
    01:00 -13°C° 0 mm 1 mps 615 mmHg 89%
    02:00 -14°C° 0 mm 2 mps 615 mmHg 89%
    03:00 -14°C° 0 mm 2 mps 614 mmHg 88%
    04:00 -11°C° 0.1 mm 1 mps 615 mmHg 87%
    05:00 -10°C° 0.1 mm 1 mps 615 mmHg 85%
    06:00 -9°C° 0.1 mm 1 mps 616 mmHg 83%
    07:00 -8°C° 0.1 mm 2 mps 617 mmHg 83%
    08:00 -7°C° 0.1 mm 2 mps 617 mmHg 83%
    09:00 -6°C° 0.1 mm 2 mps 618 mmHg 82%
    10:00 -5°C° 0.3 mm 2 mps 618 mmHg 82%
    11:00 -4°C° 0.3 mm 2 mps 618 mmHg 83%
    12:00 -4°C° 0.3 mm 2 mps 619 mmHg 83%
    13:00 -3°C° 0.2 mm 2 mps 618 mmHg 84%
    14:00 -3°C° 0.2 mm 2 mps 618 mmHg 86%
    15:00 -3°C° 0.2 mm 2 mps 618 mmHg 87%
    16:00 -5°C° 0.1 mm 2 mps 617 mmHg 90%
    17:00 -6°C° 0.1 mm 2 mps 617 mmHg 93%
    18:00 -8°C° 0.1 mm 2 mps 616 mmHg 96%
    19:00 -7°C° 0.1 mm 1 mps 616 mmHg 96%
    20:00 -8°C° 0.1 mm 1 mps 616 mmHg 96%
    21:00 -8°C° 0.1 mm 1 mps 616 mmHg 96%
    22:00 -9°C° 0 mm 1 mps 616 mmHg 96%
    23:00 -9°C° 0 mm 1 mps 615 mmHg 95%

    21 January, Saturday

    Time Temperature Precipitation Wind Pressure Humidity
    00:00 -10°C° 0 mm 1 mps 615 mmHg 95%
    01:00 -9°C° 0 mm 1 mps 615 mmHg 94%
    02:00 -9°C° 0 mm 1 mps 615 mmHg 94%
    03:00 -9°C° 0 mm 1 mps 615 mmHg 93%
    04:00 -9°C° 0 mm 1 mps 615 mmHg 93%
    05:00 -9°C° 0 mm 1 mps 615 mmHg 93%
    06:00 -10°C° 0 mm 1 mps 614 mmHg 93%
    07:00 -8°C° 0 mm 1 mps 616 mmHg 90%
    08:00 -6°C° 0 mm 1 mps 617 mmHg 87%
    09:00 -3°C° 0 mm 1 mps 618 mmHg 84%
    10:00 -2°C° 0 mm 1 mps 618 mmHg 82%
    11:00 -1°C° 0 mm 1 mps 619 mmHg 79%
    12:00 +1°C° 0 mm 1 mps 619 mmHg 77%
    13:00 +1°C° 0 mm 1 mps 619 mmHg 78%
    14:00 0°C° 0 mm 1 mps 618 mmHg 78%
    15:00 0°C° 0 mm 1 mps 618 mmHg 79%
    16:00 -2°C° 0 mm 1 mps 617 mmHg 84%
    17:00 -6°C° 0 mm 1 mps 616 mmHg 90%
    18:00 -8°C° 0 mm 1 mps 615 mmHg 95%
    19:00 -9°C° 0 mm 1 mps 614 mmHg 95%
    20:00 -10°C° 0 mm 1 mps 614 mmHg 94%
    21:00 -10°C° 0 mm 1 mps 614 mmHg 94%
    22:00 -10°C° 0 mm 1 mps 614 mmHg 94%
    23:00 -10°C° 0 mm 1 mps 614 mmHg 93%

    22 January, Sunday

    Time Temperature Precipitation Wind Pressure Humidity
    00:00 -11°C° 0 mm 1 mps 614 mmHg 93%
    01:00 -10°C° 0 mm 1 mps 614 mmHg 92%
    02:00 -10°C° 0 mm 1 mps 614 mmHg 91%
    03:00 -9°C° 0 mm 1 mps 614 mmHg 91%
    04:00 -9°C° 0 mm 1 mps 614 mmHg 91%
    05:00 -9°C° 0 mm 1 mps 614 mmHg 91%
    06:00 -10°C° 0 mm 2 mps 614 mmHg 91%
    07:00 -8°C° 0 mm 1 mps 615 mmHg 88%
    08:00 -7°C° 0 mm 1 mps 615 mmHg 85%
    09:00 -6°C° 0 mm 1 mps 616 mmHg 83%
    10:00 -3°C° 0 mm 1 mps 616 mmHg 79%
    11:00 -2°C° 0 mm 1 mps 616 mmHg 75%
    12:00 0°C° 0 mm 1 mps 617 mmHg 71%
    13:00 0°C° 0.1 mm 1 mps 616 mmHg 74%
    14:00 0°C° 0.1 mm 1 mps 616 mmHg 76%
    15:00 0°C° 0.1 mm 1 mps 615 mmHg 79%
    16:00 -1°C° 0.7 mm 1 mps 615 mmHg 83%
    17:00 -2°C° 0.7 mm 1 mps 614 mmHg 88%
    18:00 -3°C° 0.7 mm 1 mps 614 mmHg 93%
    19:00 -3°C° 1.1 mm 1 mps 614 mmHg 93%
    20:00 -2°C° 1.1 mm 1 mps 614 mmHg 94%
    21:00 -2°C° 1.1 mm 1 mps 614 mmHg 94%
    22:00 -1°C° 1.7 mm 1 mps 613 mmHg 94%
    23:00 -3°C° 1.7 mm 2 mps 613 mmHg 94%
    Show more